Time,TemperatureF,DewpointF,PressureIn,WindDirection,WindDirectionDegrees,WindSpeedMPH,WindSpeedGustMPH,Humidity,HourlyPrecipIn,Conditions,Clouds,dailyrainin,SoftwareType,DateUTC
2013-05-30 00:12:00,48.0,46.0,30.01,North,0,0.0,-999.0,93,-99.99,,,-99.99,,2013-05-30 07:12:00,
2013-05-30 00:21:00,48.0,46.0,30.01,North,0,0.0,-999.0,93,-99.99,,,-99.99,,2013-05-30 07:21:00,
2013-05-30 00:31:00,48.0,46.0,30.01,North,0,0.0,-999.0,93,-99.99,,,-99.99,,2013-05-30 07:31:00,
2013-05-30 00:42:00,50.0,48.0,30.02,North,0,0.0,-999.0,93,-99.99,,,-99.99,,2013-05-30 07:42:00,
2013-05-30 00:52:00,50.0,48.0,30.02,North,0,0.0,-999.0,93,-99.99,,,-99.99,,2013-05-30 07:52:00,
2013-05-30 01:11:00,48.0,46.0,30.03,North,0,0.0,-999.0,93,-99.99,,,-99.99,,2013-05-30 08:11:00,
2013-05-30 01:21:00,48.0,46.0,30.03,North,0,0.0,-999.0,93,-99.99,,,-99.99,,2013-05-30 08:21:00,
2013-05-30 01:31:00,48.0,46.0,30.03,North,0,0.0,-999.0,93,-99.99,,,-99.99,,2013-05-30 08:31:00,
2013-05-30 01:42:00,48.0,46.0,30.03,WNW,290,3.0,-999.0,93,-99.99,,,-99.99,,2013-05-30 08:42:00,
2013-05-30 01:52:00,48.0,46.0,30.03,WNW,290,3.0,-999.0,93,-99.99,,,-99.99,,2013-05-30 08:52:00,
2013-05-30 02:11:00,48.0,45.0,30.03,West,280,5.0,-999.0,87,-99.99,,,-99.99,,2013-05-30 09:11:00,
2013-05-30 02:21:00,48.0,45.0,30.03,West,280,5.0,-999.0,87,-99.99,,,-99.99,,2013-05-30 09:21:00,
2013-05-30 02:32:00,48.0,45.0,30.03,West,280,5.0,-999.0,87,-99.99,,,-99.99,,2013-05-30 09:32:00,
2013-05-30 02:42:00,48.0,45.0,30.04,WNW,290,8.0,16.0,87,-99.99,,,-99.99,,2013-05-30 09:42:00,
2013-05-30 02:53:00,48.0,45.0,30.04,WNW,290,8.0,16.0,87,-99.99,,,-99.99,,2013-05-30 09:53:00,
2013-05-30 03:12:00,48.0,45.0,30.05,WNW,290,7.0,-999.0,87,-99.99,,,-99.99,,2013-05-30 10:12:00,
2013-05-30 03:22:00,48.0,45.0,30.05,WNW,290,7.0,-999.0,87,-99.99,,,-99.99,,2013-05-30 10:22:00,
2013-05-30 03:32:00,48.0,45.0,30.05,WNW,290,7.0,-999.0,87,-99.99,,,-99.99,,2013-05-30 10:32:00,
2013-05-30 03:42:00,48.0,45.0,30.05,WNW,290,9.0,-999.0,87,0.01,,,-99.99,,2013-05-30 10:42:00,
2013-05-30 03:52:00,48.0,45.0,30.05,WNW,290,9.0,-999.0,87,0.01,,,-99.99,,2013-05-30 10:52:00,
2013-05-30 04:12:00,48.0,45.0,30.05,NW,310,9.0,16.0,87,-99.99,,,-99.99,,2013-05-30 11:12:00,
2013-05-30 04:21:00,48.0,45.0,30.05,NW,310,9.0,16.0,87,-99.99,,,-99.99,,2013-05-30 11:21:00,
2013-05-30 04:32:00,48.0,45.0,30.05,NW,310,9.0,16.0,87,-99.99,,,-99.99,,2013-05-30 11:32:00,
2013-05-30 04:42:00,48.0,45.0,30.05,NW,310,10.0,16.0,87,-99.99,,,-99.99,,2013-05-30 11:42:00,
2013-05-30 04:52:00,48.0,45.0,30.05,NW,310,10.0,16.0,87,-99.99,,,-99.99,,2013-05-30 11:52:00,
2013-05-30 05:11:00,48.0,45.0,30.07,NW,310,8.0,-999.0,87,-99.99,,,-99.99,,2013-05-30 12:11:00,
2013-05-30 05:22:00,48.0,45.0,30.07,NW,310,8.0,-999.0,87,-99.99,,,-99.99,,2013-05-30 12:22:00,
2013-05-30 05:32:00,48.0,45.0,30.07,NW,310,8.0,-999.0,87,-99.99,,,-99.99,,2013-05-30 12:32:00,
2013-05-30 05:42:00,48.0,45.0,30.07,WNW,300,9.0,-999.0,87,-99.99,,,-99.99,,2013-05-30 12:42:00,
2013-05-30 05:52:00,48.0,45.0,30.07,WNW,300,9.0,-999.0,87,-99.99,,,-99.99,,2013-05-30 12:52:00,
2013-05-30 06:11:00,48.0,45.0,30.08,North,0,0.0,-999.0,87,-99.99,,,-99.99,,2013-05-30 13:11:00,
2013-05-30 06:22:00,48.0,45.0,30.08,North,0,0.0,-999.0,87,-99.99,,,-99.99,,2013-05-30 13:22:00,
2013-05-30 06:32:00,48.0,45.0,30.08,North,0,0.0,-999.0,87,-99.99,,,-99.99,,2013-05-30 13:32:00,
2013-05-30 06:42:00,46.0,45.0,30.09,North,0,0.0,-999.0,93,-99.99,,,-99.99,,2013-05-30 13:42:00,
2013-05-30 06:52:00,46.0,45.0,30.09,North,0,0.0,-999.0,93,-99.99,,,-99.99,,2013-05-30 13:52:00,
2013-05-30 07:11:00,50.0,45.0,30.09,North,0,0.0,-999.0,81,-99.99,,,-99.99,,2013-05-30 14:11:00,
2013-05-30 07:22:00,50.0,45.0,30.09,North,0,0.0,-999.0,81,-99.99,,,-99.99,,2013-05-30 14:22:00,
2013-05-30 07:32:00,50.0,45.0,30.09,North,0,0.0,-999.0,81,-99.99,,,-99.99,,2013-05-30 14:32:00,
2013-05-30 07:42:00,50.0,45.0,-100.00,North,-999,-999.0,-999.0,81,-99.99,,,-99.99,,2013-05-30 14:42:00,
2013-05-30 07:52:00,50.0,45.0,-100.00,North,-999,-999.0,-999.0,81,-99.99,,,-99.99,,2013-05-30 14:52:00,
2013-05-30 08:01:00,50.0,45.0,-100.00,North,-999,-999.0,-999.0,81,-99.99,,,-99.99,,2013-05-30 15:01:00,
2013-05-30 08:11:00,50.0,45.0,-100.00,North,-999,-999.0,-999.0,81,-99.99,,,-99.99,,2013-05-30 15:11:00,
2013-05-30 08:22:00,50.0,45.0,-100.00,North,-999,-999.0,-999.0,81,-99.99,,,-99.99,,2013-05-30 15:22:00,
2013-05-30 08:33:00,50.0,45.0,-100.00,North,-999,-999.0,-999.0,81,-99.99,,,-99.99,,2013-05-30 15:33:00,
2013-05-30 13:42:00,-999.0,-99.9,30.13,WNW,300,10.0,-999.0,-999,-99.99,,,-99.99,,2013-05-30 20:42:00,
2013-05-30 13:52:00,-999.0,-99.9,30.13,WNW,300,10.0,-999.0,-999,-99.99,,,-99.99,,2013-05-30 20:52:00,
2013-05-30 14:11:00,61.0,43.0,30.14,WNW,300,14.0,20.0,51,-99.99,,,-99.99,,2013-05-30 21:11:00,
2013-05-30 14:22:00,61.0,43.0,30.14,WNW,300,14.0,20.0,51,-99.99,,,-99.99,,2013-05-30 21:22:00,
2013-05-30 14:33:00,61.0,43.0,30.14,WNW,300,14.0,20.0,51,-99.99,,,-99.99,,2013-05-30 21:33:00,
2013-05-30 14:42:00,61.0,45.0,30.14,WNW,290,13.0,22.0,55,-99.99,,,-99.99,,2013-05-30 21:42:00,
2013-05-30 14:53:00,61.0,45.0,30.14,WNW,290,13.0,22.0,55,-99.99,,,-99.99,,2013-05-30 21:53:00,
2013-05-30 15:12:00,61.0,43.0,30.15,WNW,300,15.0,22.0,51,-99.99,,,-99.99,,2013-05-30 22:12:00,
2013-05-30 15:22:00,61.0,43.0,30.15,WNW,300,15.0,22.0,51,-99.99,,,-99.99,,2013-05-30 22:22:00,
2013-05-30 15:33:00,61.0,43.0,30.15,WNW,300,15.0,22.0,51,-99.99,,,-99.99,,2013-05-30 22:33:00,
2013-05-30 15:42:00,61.0,43.0,30.15,WNW,290,10.0,18.0,51,-99.99,,,-99.99,,2013-05-30 22:42:00,
2013-05-30 15:52:00,61.0,43.0,30.15,WNW,290,10.0,18.0,51,-99.99,,,-99.99,,2013-05-30 22:52:00,
2013-05-30 16:11:00,63.0,45.0,30.15,West,270,6.0,-999.0,51,-99.99,,,-99.99,,2013-05-30 23:11:00,
2013-05-30 16:22:00,63.0,45.0,30.15,West,270,6.0,-999.0,51,-99.99,,,-99.99,,2013-05-30 23:22:00,
2013-05-30 16:31:00,63.0,45.0,30.15,West,270,6.0,-999.0,51,-99.99,,,-99.99,,2013-05-30 23:31:00,
2013-05-30 16:41:00,63.0,43.0,30.15,WNW,300,9.0,-999.0,48,-99.99,,,-99.99,,2013-05-30 23:41:00,
2013-05-30 16:52:00,63.0,43.0,30.15,WNW,300,9.0,-999.0,48,-99.99,,,-99.99,,2013-05-30 23:52:00,
2013-05-30 17:11:00,63.0,45.0,30.14,WNW,300,14.0,21.0,51,-99.99,,,-99.99,,2013-05-31 00:11:00,
2013-05-30 17:21:00,63.0,45.0,30.14,WNW,300,14.0,21.0,51,-99.99,,,-99.99,,2013-05-31 00:21:00,
2013-05-30 17:32:00,63.0,45.0,30.14,WNW,300,14.0,21.0,51,-99.99,,,-99.99,,2013-05-31 00:32:00,
2013-05-30 17:42:00,63.0,43.0,30.14,WNW,300,12.0,20.0,48,-99.99,,,-99.99,,2013-05-31 00:42:00,
2013-05-30 17:52:00,63.0,43.0,30.14,WNW,300,12.0,20.0,48,-99.99,,,-99.99,,2013-05-31 00:52:00,
2013-05-30 18:12:00,61.0,45.0,30.15,WNW,290,8.0,16.0,55,-99.99,,,-99.99,,2013-05-31 01:12:00,
2013-05-30 18:21:00,61.0,45.0,30.15,WNW,290,8.0,16.0,55,-99.99,,,-99.99,,2013-05-31 01:21:00,
2013-05-30 18:32:00,61.0,45.0,30.15,WNW,290,8.0,16.0,55,-99.99,,,-99.99,,2013-05-31 01:32:00,
2013-05-30 18:42:00,61.0,45.0,30.16,WNW,290,8.0,16.0,55,-99.99,,,-99.99,,2013-05-31 01:42:00,
2013-05-30 18:52:00,61.0,45.0,30.16,WNW,290,8.0,16.0,55,-99.99,,,-99.99,,2013-05-31 01:52:00,
2013-05-30 19:11:00,59.0,43.0,30.17,WNW,300,10.0,16.0,54,-99.99,,,-99.99,,2013-05-31 02:11:00,
2013-05-30 19:21:00,59.0,43.0,30.17,WNW,300,10.0,16.0,54,-99.99,,,-99.99,,2013-05-31 02:21:00,
2013-05-30 19:32:00,59.0,43.0,30.17,WNW,300,10.0,16.0,54,-99.99,,,-99.99,,2013-05-31 02:32:00,
2013-05-30 19:41:00,59.0,45.0,30.17,WNW,290,6.0,-999.0,58,-99.99,,,-99.99,,2013-05-31 02:41:00,
2013-05-30 19:51:00,59.0,45.0,30.17,WNW,290,6.0,-999.0,58,-99.99,,,-99.99,,2013-05-31 02:51:00,
2013-05-30 20:11:00,55.0,45.0,30.19,West,280,3.0,-999.0,66,-99.99,,,-99.99,,2013-05-31 03:11:00,
2013-05-30 20:21:00,55.0,45.0,30.19,West,280,3.0,-999.0,66,-99.99,,,-99.99,,2013-05-31 03:21:00,
2013-05-30 20:33:00,55.0,45.0,30.19,West,280,3.0,-999.0,66,-99.99,,,-99.99,,2013-05-31 03:33:00,
2013-05-30 20:43:00,55.0,45.0,30.18,WNW,300,6.0,-999.0,66,-99.99,,,-99.99,,2013-05-31 03:43:00,
2013-05-30 20:53:00,55.0,45.0,30.18,WNW,300,6.0,-999.0,66,-99.99,,,-99.99,,2013-05-31 03:53:00,
2013-05-30 21:12:00,54.0,45.0,30.19,NW,320,9.0,-999.0,71,-99.99,,,-99.99,,2013-05-31 04:12:00,
2013-05-30 21:22:00,54.0,45.0,30.19,NW,320,9.0,-999.0,71,-99.99,,,-99.99,,2013-05-31 04:22:00,
2013-05-30 21:32:00,54.0,45.0,30.19,NW,320,9.0,-999.0,71,-99.99,,,-99.99,,2013-05-31 04:32:00,
2013-05-30 21:42:00,54.0,45.0,30.19,North,-999,-999.0,-999.0,71,-99.99,,,-99.99,,2013-05-31 04:42:00,
2013-05-30 21:52:00,54.0,45.0,30.19,North,-999,-999.0,-999.0,71,-99.99,,,-99.99,,2013-05-31 04:52:00,
2013-05-30 22:12:00,54.0,46.0,30.20,North,0,0.0,-999.0,76,-99.99,,,-99.99,,2013-05-31 05:12:00,
2013-05-30 22:22:00,54.0,46.0,30.20,North,0,0.0,-999.0,76,-99.99,,,-99.99,,2013-05-31 05:22:00,
2013-05-30 22:31:00,54.0,46.0,30.20,North,0,0.0,-999.0,76,-99.99,,,-99.99,,2013-05-31 05:31:00,
2013-05-30 22:42:00,54.0,45.0,30.21,North,0,0.0,-999.0,71,-99.99,,,-99.99,,2013-05-31 05:42:00,
2013-05-30 22:52:00,54.0,45.0,30.21,North,0,0.0,-999.0,71,-99.99,,,-99.99,,2013-05-31 05:52:00,
2013-05-30 23:12:00,52.0,45.0,30.22,WNW,300,5.0,-999.0,76,-99.99,,,-99.99,,2013-05-31 06:12:00,
2013-05-30 23:21:00,52.0,45.0,30.22,WNW,300,5.0,-999.0,76,-99.99,,,-99.99,,2013-05-31 06:21:00,
2013-05-30 23:31:00,52.0,45.0,30.22,WNW,300,5.0,-999.0,76,-99.99,,,-99.99,,2013-05-31 06:31:00,
2013-05-30 23:41:00,50.0,45.0,30.22,WNW,290,3.0,-999.0,81,-99.99,,,-99.99,,2013-05-31 06:41:00,
2013-05-30 23:51:00,50.0,45.0,30.22,WNW,290,3.0,-999.0,81,-99.99,,,-99.99,,2013-05-31 06:51:00,